www.pogodaiklimat.ru

Погода и климат >> Архив погоды >> Иран >> Kish Island


ПОГОДА в Kish Island

  • Прогноз погоды в Kish Island
  • Монитор погоды в Kish Island
  • Климат города

АРХИВ ПОГОДЫ в Kish Island

Время (UTC), дата Ветер
(напр.,м/с)
 
Видим.   Явления Облачность Т
(С)
Тd
(С)
f
(%)
Тe
(С)
Тes
(С)
Комфортность P
(гПа)
Po
(гПа)
Тmin
(С)
Tmax
(С)
R
(мм)
R24
(мм)
S
(см)
00 14.11 СЗ 4 10 км 4/0
[Ci fib]
+25.8 +14.7 50 +28 +28 жарко 1011.1 1007.7
03 14.11 СЗ 4 10 км 4/0
[Ci fib]
+25.6 +12.5 44 +27 +27 жарко 1012.1 1008.7 +25.4
06 14.11 СЗ 6 10 км 4/0
[Ci fib]
+29.0 +13.2 38 +31 +33 жарко 1014.1 1010.7
09 14.11 С 4 10 км 4/0
[Ci fib]
+30.6 +14.2 37 +32 +39 жарко 1012.6 1009.2
12 14.11 ЮЗ 3 10 км 4/0
[Ci fib]
+30.0 +14.9 40 +32 +34 жарко 1010.9 1007.5
15 14.11 ЮВ 3 10 км 1/0
[Cc]
+26.8 +18.2 59 +31 +31 душно 1012.1 1008.6 +32.4
18 14.11 ЮВ 2 10 км 1/0
[Cc]
+25.4 +19.0 68 +30 +30 душно 1013.2 1009.8
21 14.11 СВ 2 10 км 1/0
[Ci fib]
+24.4 +18.8 71 +29 +29 душно 1013.0 1009.6
00 15.11 В 3 10 км 1/0
[Ci fib]
+24.2 +17.8 67 +28 +28 душно 1012.5 1009.1
03 15.11 В 4 10 км 5/0
[Ac trans Cc]
+23.8 +19.5 77 +29 +29 душно 1013.7 1010.3 +23.4
06 15.11 В 8 10 км 5/0
[Ac trans Ci fib]
+29.0 +17.0 48 +33 +34 очень
душно
1015.9 1012.5
09 15.11 ЮВ 10 10 км 4/0
[Ci fib]
+30.6 +15.1 39 +33 +33 душно 1014.4 1011.0
12 15.11 ЮВ 10 10 км 4/0
[Ci fib]
+30.4 +14.8 39 +33 +33 душно 1013.4 1009.9
15 15.11 ЮВ 4 10 км 4/0
[Cs]
+27.2 +17.6 56 +31 +31 душно 1014.7 1011.2 +31.8
18 15.11 В 3 10 км 4/0
[Ci fib]
+26.4 +19.3 65 +32 +32 очень
душно
1015.4 1011.9
21 15.11 В 3 10 км 4/0
[Ci fib]
+26.0 +19.2 66 +31 +31 очень
душно
1014.6 1011.2
00 16.11 В 3 10 км 3/0
[Ci fib]
+24.4 +16.8 63 +28 +28 душно 1014.6 1011.2
03 16.11 ЮВ 6 10 км 4/0
[Ci fib]
+25.4 +19.5 70 +31 +31 очень
душно
1015.5 1012.1 +23.8
06 16.11 В 7 10 км 6/0
[Cs]
+28.0 +22.4 72 +37 +38 очень
душно
1017.9 1014.5
09 16.11 ЮВ 5 10 км 6/0
[Cs]
+29.8 +21.5 61 +38 +42 очень
душно
1016.8 1013.4
12 16.11 Ю 4 10 км 5/0
[Ci fib]
+29.6 +20.3 57 +36 +38 очень
душно
1015.9 1012.5
15 16.11 ЮВ 2 10 км 5/0
[Cs]
+26.8 +20.4 68 +33 +33 очень
душно
1017.0 1013.5 +30.4
18 16.11 Ю 2 10 км 4/0
[Ci fib]
+25.4 +20.9 76 +32 +32 очень
душно
1017.7 1014.2
21 16.11 штиль 0 10 км ясно +24.4 +20.8 80 +30 +30 очень
душно
1016.8 1013.1
00 17.11 штиль 0 10 км 1/0
[Ci fib]
+24.0 +20.8 82 +30 +30 очень
душно
1015.7 1012.3
03 17.11 ЮВ 2 10 км 9/9 900 м
[Sc Ci fib]
+23.4 +21.3 88 +31 +31 очень
душно
1016.1 1012.7 +23.2
06 17.11 З 3 10 км 9/4 1050 м
[Sc Ac trans Cs]
+29.2 +21.8 64 +37 +39 очень
душно
1018.0 1014.5
09 17.11 З 7 10 км 9/0
[Cs]
+29.8 +20.8 59 +37 +39 очень
душно
1015.8 1012.4
12 17.11 З 8 8000 м мгла 6/1 900 м
[Cb calv Ci sp]
+28.8 +23.0 71 +39 +39 очень
душно
1014.6 1011.2
15 17.11 З 5 7000 м мгла 5/0
[Ci fib]
+27.4 +23.3 78 +37 +37 очень
душно
1015.5 1012.0 +30.0
18 17.11 З 5 6000 м дымка 4/0
[Ci sp]
+26.6 +23.1 81 +36 +36 очень
душно
1015.6 1012.2
21 17.11 СЗ 6 6000 м дымка 3/0
[Ci fib]
+26.0 +23.1 84 +35 +35 очень
душно
1014.6 1011.1
00 18.11 СЗ 7 6000 м мгла 3/0
[Ci fib]
+25.2 +21.3 79 +32 +32 очень
душно
1014.1 1010.7
03 18.11 СЗ 6 6000 м мгла 1/1 1000 м
[Sc Ci fib]
+24.4 +20.4 78 +30 +30 очень
душно
1014.7 1011.3 +24.4
06 18.11 СЗ 5 7000 м мгла 1/0
[Ci fib]
+26.4 +18.6 62 +31 +34 душно 1015.6 1012.2
09 18.11 СЗ 7 7000 м мгла 1/0
[Ci fib]
+28.2 +16.0 48 +31 +34 душно 1013.4 1009.9
12 18.11 З 8 8000 м мгла ясно +28.0 +18.4 56 +33 +33 очень
душно
1012.1 1008.7
15 18.11 СЗ 7 8000 м мгла ясно +26.0 +19.4 67 +31 +31 очень
душно
1012.8 1009.4 +28.8
18 18.11 СЗ 7 7000 м мгла ясно +25.6 +19.9 71 +31 +31 очень
душно
1013.8 1010.4
21 18.11 СЗ 4 7000 м мгла ясно +25.2 +19.5 71 +31 +31 очень
душно
1013.8 1010.3
00 19.11 СЗ 4 7000 м мгла ясно +24.0 +20.0 78 +29 +29 душно 1013.2 1009.7
03 19.11 СЗ 4 8000 м мгла ясно +23.6 +19.2 76 +28 +28 душно 1014.4 1011.0 +23.4
06 19.11 СЗ 3 10 км ясно +27.0 +17.5 56 +31 +36 душно 1016.5 1013.0
09 19.11 ЮЗ 2 20 км ясно +29.6 +16.6 46 +33 +43 душно 1014.8 1011.4
12 19.11 З 3 20 км 1/0
[Ci fib]
+28.8 +17.5 50 +33 +35 очень
душно
1014.0 1010.5
15 19.11 З 3 8000 м мгла 1/0
[Ci fib]
+25.4 +17.6 62 +30 +30 душно 1014.7 1011.3 +30.6
18 19.11 СЗ 3 8000 м мгла ясно +24.4 +17.9 67 +29 +29 душно 1015.5 1012.1
21 19.11 СЗ 2 8000 м мгла ясно +23.2 +16.9 68 +28 +28 душно 1014.9 1011.5
00 20.11 СЗ 3 7000 м мгла ясно +22.8 +17.7 73 +28 +28 душно 1014.3 1010.9
03 20.11 СЗ 3 8000 м мгла 5/0
[Ci sp]
+23.6 +19.2 76 +28 +28 душно 1015.5 1012.1 +22.6
06 20.11 З 6 8000 м мгла 5/0
[Ac trans Ci sp]
+26.2 +19.1 65 +31 +33 очень
душно
1017.1 1013.6
09 20.11 С 3 8000 м мгла 9/5 900 м
[Cb calv Ac trans]
+27.6 +13.9 43 +30 +32 жарко 1015.6 1012.1
12 20.11 СЗ 7 12 км 8/4 900 м
[Cb calv Ac trans]
+27.0 +15.2 48 +30 +30 душно 1014.9 1011.4
15 20.11 СЗ 7 10 км 3/0
[Ac trans]
+25.0 +17.3 62 +29 +29 душно 1015.7 1012.3 +28.4
18 20.11 СЗ 5 10 км 1/1 750 м
[Cu hum]
+24.4 +17.4 65 +28 +28 душно 1016.6 1013.1
21 20.11 СЗ 5 7000 м мгла 1/1 750 м
[Cu hum]
+23.8 +18.4 72 +28 +28 душно 1015.9 1012.4

 

Местоположение метеостанции Kish Island (Иран): широта 26.50 долгота 53.98 высота над уровнем моря 30 м.

В архиве по умолчанию представлена погода в Kish Island за последнюю неделю. Архивные данные за месяц целиком и за предыдущие месяцы, начиная с января 2011 года, Вы можете получить, выбрав интересующий диапазон дат из раскрывающегося списка и нажав кнопку "Ввод!".


*Определитесь, кто Вы:
робот инопланетянин человек

Внимание! Время в таблицах - всемирное. Для получения местного времени необходимо прибавить поправку, которая в Kish Island равна 3.5 ч.

Смотрите также архив погоды в соседних городах и на ближайших метеорологических станциях:

Погода в Bandar Lengeh (Иран) (85 км)
Погода в Sirri Island (Иран) (87 км)
Погода в Abu Musa Island (Иран) (113 км)
Погода в Dubai (ОАЭ) (194 км)
Погода в Sharjah (ОАЭ) (202 км)
Погода в Dubai Al Maktoum Int Airport (ОАЭ) (214 км)
Погода в Ras Al Khaimah Int Airport (ОАЭ) (218 км)
Погода в Khasab Airport (Оман) (227 км)
Погода в Khasab (Оман) (228 км)
Погода в Abu Dhabi Bateen Airport (ОАЭ) (235 км)

Пояснения к столбцам:

Ветер - указаны скорость ветра в м/с - средняя за 10 мин, порывы в срок и между сроками (в фигурных скобках) и направление, откуда дует ветер: С - северный, СВ - северо-восточный, В - восточный, ЮВ - юго-восточный, Ю - южный, ЮЗ - юго-западный, З - западный, СЗ - северо-западный.
Видимость - горизонтальная дальность видимости в метрах или километрах. При видимости от 1 до 10 км при отсутствии осадков обычно наблюдается дымка, при ухудшении видимости до 1 км и менее - туман. В сухую погоду видимость может ухудшаться дымом, пылью или мглою.
Явления - указаны атмосферные явления, наблюдавшиеся в срок или в последний час перед сроком; фигурными скобками обозначены явления, наблюдавшиеся между сроками (за 1-3 часа до срока); квадратными скобками обозначены град или гололедные отложения с указанием их диаметра в мм.
Облачность - указаны через наклонную черту общая и нижняя облачность в баллах и высота нижней границы облаков в метрах; квадратными скобками обозначены формы облаков: Ci - перистые, Cs - перисто-слоистые, Cc - перисто-кучевые, Ac - высококучевые, As - высокослоистые, Sc - слоисто-кучевые, Ns - слоисто-дождевые, Cu - кучевые, Cb - кучево-дождевые. Подробнее классификацию облаков см. в Атласе облаков (PDF).
T - Температура воздуха - температура, измеренная на высоте 2 м над землей.
Td - Температура точки росы - температура, при понижении до которой содержащийся в воздухе водяной пар достигнет насыщения.
f - Относительная влажность воздуха - влажноcть воздуха, измеренная на высоте 2 м над землей.
Te - Эффективная температура - температура, которую ощущает одетый по сезону человек в тени. Характеристика душности погоды. При расчете учитывается влияние влажности воздуха и скорости ветра на теплоощущения человека.
Tes - Эффективная температура на солнце - температура, которую ощущает человек, с поправкой на солнечный нагрев. Характеристика знойности погоды. Зависит от высоты солнца над горизонтом, облачности и скорости ветра. Ночью, в пасмурную погоду, а также при ветре 12 м/с и более поправка равна нулю.
P - Атмосферное давление - приведенное к уровню моря атмосферное давление.
Po - Атмосферное давление - измеренное на уровне метеостанции атмосферное давление.
Tmin - Минимальная температура - минимум температуры воздуха на высоте 2 м над землей.
Tmax - Максимальная температура - максимум температуры воздуха на высоте 2 м над землей.
R - Количество осадков - Количество выпавших осадков за период времени, мм. При наведении курсора мыши на число - период времени, за который выпало указанное количество осадков.
R24 - Количество осадков - Количество выпавших осадков за 24 часа, мм.
S - Снежный покров - Высота снежного покрова, см. При наведении курсора мыши на число - состояние снежного покрова и степень покрытия местности в баллах.